Theta_e
352 352 354 355 355 355 356 352 354 352 351 349 350 353 353 353 354 354 351 351 351 351 351 352 352 352 351 346 347 349 348 347 346 346 342 339 337 339 341 347 350 349 348
351 354 352 353 355 355 354 353 353 352 351 347 353 352 352 352 353 352 351 352 354 352 352 351 351 352 350 349 347 346 343 342 343 345 345 345 343 341 339 347 348 343 349
349 351 355 352 354 354 352 353 354 354 352 352 351 352 353 353 354 352 353 353 352 352 352 352 351 347 347 348 350 348 344 340 342 342 348 353 346 340 341 342 345 348 345
349 349 352 351 353 352 353 353 352 353 348 354 353 353 352 351 351 354 353 351 351 351 351 350 350 347 345 343 343 342 340 341 345 347 349 352 351 339 340 342 340 346 339
347 349 349 349 347 348 347 350 348 347 352 353 352 350 352 351 350 352 351 351 350 349 348 347 347 347 345 344 342 340 340 340 345 350 350 348 348 345 341 342 337 340 348
349 353 349 351 354 350 349 351 350 342 353 353 348 353 351 351 351 351 348 342 338 335 336 340 345 349 350 348 347 348 346 345 346 351 353 339 350 343 340 349 350 343 348
351 349 352 349 354 346 348 349 346 347 353 354 352 354 353 351 345 340 337 335 337 342 345 347 348 348 347 346 346 346 347 347 349 332 345 345 347 341 342 348 351 346 343
351 352 355 352 352 353 352 353 351 352 353 350 349 350 344 336 334 333 334 341 344 346 347 346 345 345 345 344 344 342 345 350 349 341 347 348 337 340 343 345 340 338 338
353 353 353 353 350 344 347 354 345 353 354 344 339 336 333 331 334 340 343 344 345 345 344 345 345 346 347 346 342 339 345 345 336 337 346 346 338 337 340 348 347 347 344
351 351 354 353 349 344 346 344 338 345 342 335 333 333 333 338 344 351 352 345 342 342 340 343 344 345 348 348 345 339 346 345 343 334 333 347 340 337 338 340 346 348 346
349 351 348 350 350 347 351 355 346 334 334 337 337 339 348 353 353 353 347 342 340 341 346 342 344 347 337 347 348 345 350 349 344 344 341 346 340 337 336 339 340 343 345
345 350 348 348 350 349 351 348 350 348 350 351 349 351 355 355 349 354 346 348 347 348 333 342 347 349 350 345 350 349 341 346 347 344 348 345 340 338 337 337 340 342 343
345 346 346 346 347 346 347 351 348 349 352 353 353 354 356 353 353 353 353 353 351 340 340 347 350 350 340 340 349 350 345 347 348 349 344 341 339 338 338 338 339 340 341
345 346 346 346 347 348 346 348 346 350 347 348 352 355 353 357 353 350 350 343 335 337 349 352 351 352 348 347 351 349 348 349 347 348 344 341 340 339 338 339 339 339 340
346 345 347 346 348 350 348 347 348 346 345 351 346 354 351 356 350 353 348 353 352 350 352 343 351 348 349 349 350 349 347 348 347 348 348 344 342 340 339 338 339 339 339
346 346 349 350 351 350 353 348 349 345 351 347 352 351 348 356 347 356 353 352 351 352 355 351 348 340 332 338 351 349 350 345 348 347 346 348 345 340 341 340 340 340 340
347 345 349 351 352 351 353 352 349 348 348 349 354 353 355 354 356 354 354 354 348 349 349 345 342 337 330 335 337 345 343 348 348 347 346 348 347 343 344 341 341 340 340
347 345 347 347 349 350 354 354 352 347 346 347 351 351 353 355 355 353 354 354 343 348 348 348 350 342 334 337 338 338 338 343 348 346 346 346 348 349 348 345 345 343 342
348 345 345 346 348 349 354 353 352 347 349 347 348 352 354 353 353 354 352 355 341 354 349 352 347 344 345 345 348 345 345 349 349 343 342 344 346 346 348 347 347 346 344
349 346 346 345 346 348 352 352 351 351 349 349 349 351 355 353 353 353 353 355 346 353 352 353 347 347 344 346 351 354 353 352 351 345 335 341 337 341 347 347 347 347 346
352 349 347 346 347 347 353 352 350 352 348 348 348 350 355 351 354 356 350 355 355 355 337 330 350 349 349 353 355 355 353 349 350 345 344 342 341 336 341 345 344 343 343
353 351 349 347 350 348 352 350 350 350 350 347 348 352 354 355 354 352 354 351 354 357 354 347 340 352 354 355 355 354 355 352 349 348 344 344 347 345 345 343 344 342 341
353 352 351 349 352 349 352 349 351 351 351 350 347 354 354 353 354 352 353 355 355 351 357 355 355 357 357 353 353 353 355 355 352 350 346 346 345 345 343 341 340 338 338
353 353 354 351 353 353 352 354 352 351 352 350 348 347 346 348 350 351 352 352 354 357 355 358 359 356 356 358 354 353 350 352 355 355 350 346 345 343 339 338 336 336 337
352 354 355 353 351 353 350 354 353 354 353 351 349 349 346 350 351 351 351 351 353 355 356 355 355 357 357 357 353 353 353 351 351 352 351 348 344 340 338 337 335 333 332
352 354 354 354 352 352 352 350 355 357 351 353 351 350 349 350 350 349 349 351 351 356 355 357 357 358 357 355 355 355 353 354 351 348 348 344 345 342 336 334 332 326 322
Wind_Speed
13 11 10 10 11 12 13 12 11 11 11 10 10 10 10 11 12 12 13 14 14 14 13 12 11 11 10 9 8 7 6 6 7 7 8 8 8 9 8 9 8 9 10
17 13 12 11 11 12 13 13 12 12 10 9 9 10 10 11 12 12 13 14 14 12 12 11 10 9 8 7 6 5 4 4 3 5 7 7 7 8 9 8 11 7 9
18 15 13 12 12 12 12 13 12 11 9 9 9 10 11 11 12 12 13 12 12 10 10 10 9 8 6 4 3 2 0 1 2 5 6 7 7 9 8 7 8 8 8
18 16 13 13 12 12 12 12 12 11 10 9 10 10 10 10 10 10 10 9 9 8 7 6 5 4 3 2 0 2 3 3 2 5 6 11 9 8 9 7 7 7 7
19 18 15 13 12 12 11 11 10 10 9 9 11 10 9 9 9 8 7 6 6 5 4 3 1 1 1 1 3 5 4 3 4 6 5 3 12 9 10 10 8 9 9
21 18 18 14 12 13 11 11 10 10 10 11 9 9 9 8 7 6 5 5 4 3 3 1 0 0 1 3 7 6 5 4 5 8 6 4 12 8 10 14 10 12 9
21 19 16 14 12 11 11 11 9 11 9 10 9 8 8 7 6 5 4 3 2 2 1 0 1 2 3 5 7 8 7 4 2 9 18 11 9 7 10 13 12 10 9
23 21 16 13 12 12 12 10 11 9 9 8 7 6 7 7 7 6 5 4 3 1 1 1 1 1 2 4 5 7 4 4 2 18 8 11 7 11 11 12 12 11 10
23 21 16 12 10 11 11 9 9 8 9 7 6 6 6 6 7 6 4 2 1 1 2 2 3 3 6 7 7 7 2 9 22 15 4 10 12 10 10 11 11 11 10
21 18 22 15 13 12 11 9 7 7 6 6 5 5 5 3 3 3 2 3 1 1 3 9 10 4 10 13 15 8 7 13 5 15 11 15 13 9 9 11 11 11 11
20 22 16 14 15 13 10 8 7 7 6 6 6 8 6 3 9 10 1 0 1 2 11 15 17 16 15 14 16 18 10 13 20 8 13 14 10 9 8 8 11 12 11
16 17 18 15 14 13 14 9 8 8 7 4 5 6 5 12 6 13 4 3 1 13 17 11 12 3 3 21 11 16 15 7 10 23 17 22 13 9 8 8 10 11 11
16 14 14 17 14 13 12 11 11 12 13 7 6 6 3 10 7 5 10 13 19 35 19 17 16 15 21 16 17 12 5 15 22 22 19 16 8 8 9 10 11 11 11
15 17 14 15 12 13 11 11 9 14 10 6 4 5 11 13 6 9 9 33 10 13 10 2 6 9 19 17 4 12 13 16 12 3 8 7 5 8 11 11 11 10 10
16 17 18 16 9 9 8 4 3 9 7 13 6 2 6 4 6 9 10 4 1 4 10 26 19 23 20 25 23 19 11 15 17 13 5 6 5 9 11 12 12 12 11
16 16 18 15 10 9 3 8 3 7 6 6 8 2 6 10 7 11 7 12 13 3 14 15 9 17 25 27 25 23 25 16 11 13 11 8 4 7 6 9 9 11 12
18 18 18 15 13 11 6 9 8 5 6 7 5 3 3 6 8 12 14 11 12 12 13 12 16 20 25 19 23 21 25 26 16 17 13 8 5 7 5 7 8 12 13
20 19 19 16 15 12 10 11 9 9 10 8 8 5 5 2 4 10 13 12 18 13 10 14 20 21 18 20 21 18 23 23 21 21 16 8 9 6 7 10 9 10 12
20 20 19 15 18 14 12 9 7 8 6 8 5 8 6 2 3 6 13 13 13 11 15 17 20 20 22 22 19 21 22 19 11 21 15 24 13 17 13 3 6 8 7
22 21 18 16 18 16 13 11 9 6 6 6 4 3 5 1 4 4 12 4 9 8 17 22 19 20 20 17 17 20 22 21 18 16 11 3 9 5 11 6 7 7 9
22 22 20 20 20 18 14 13 14 13 12 15 11 7 2 1 2 3 8 9 8 6 22 23 24 20 21 17 16 20 23 21 3 6 6 12 11 7 2 5 9 9 5
22 23 22 22 20 20 16 16 15 14 14 11 10 11 6 5 3 6 4 9 11 6 13 20 18 18 14 14 12 15 5 15 12 5 11 11 13 8 5 11 14 13 10
25 25 24 23 21 24 19 16 13 10 5 6 6 9 8 9 8 9 5 5 10 10 10 9 11 13 12 18 18 5 4 4 14 5 9 13 14 9 8 11 15 17 13
26 26 25 25 23 23 24 16 15 11 10 9 10 12 12 11 10 9 9 8 9 10 14 11 11 14 14 14 20 17 15 14 3 5 4 10 11 8 9 12 15 13 12
28 27 25 26 24 23 26 20 17 14 13 9 10 8 8 6 6 11 11 11 12 12 16 17 17 16 17 16 18 18 18 13 5 3 3 10 13 8 8 8 11 14 15
27 28 27 28 26 26 25 27 19 14 18 11 8 8 8 11 14 16 15 12 11 13 16 15 16 18 17 18 17 17 11 4 5 3 4 9 7 7 10 11 15 16 16
Wind_Direction
152 140 133 125 108 103 109 120 119 115 110 101 90 88 83 83 81 78 79 83 84 84 88 89 90 91 91 95 93 91 89 86 99 111 113 113 111 109 116 103 113 110 104
139 140 129 123 113 106 104 113 118 119 113 104 98 94 91 85 93 83 84 86 89 89 93 94 94 96 97 97 94 85 68 55 89 136 128 140 137 125 122 99 111 127 116
139 140 131 123 116 110 111 109 112 112 110 106 106 102 94 91 90 94 90 94 95 99 98 100 105 109 111 110 107 115 60 153 150 172 178 178 156 136 132 121 121 120 117
136 139 134 130 120 118 113 113 115 116 114 106 103 98 101 106 107 106 104 103 101 97 94 94 101 110 117 127 241 274 267 264 207 193 236 225 177 144 146 138 121 128 122
139 133 139 137 126 117 120 114 110 119 113 115 112 108 110 109 114 111 98 91 80 76 82 91 125 177 237 264 263 253 263 302 276 260 308 139 177 159 146 145 137 145 142
124 124 132 128 129 125 122 124 120 121 113 116 114 114 113 111 105 99 96 94 104 112 98 101 128 254 272 258 245 240 243 229 247 305 259 148 163 161 153 146 159 170 156
123 128 129 134 128 127 137 121 123 121 121 120 121 121 112 113 121 128 126 104 97 95 84 333 300 303 287 271 274 259 241 265 357 82 287 165 200 190 164 160 164 173 174
135 131 127 133 136 125 126 128 120 127 129 133 138 137 142 143 146 138 134 135 131 113 289 310 292 271 271 271 289 285 251 146 191 137 242 178 195 181 169 168 172 175 178
128 129 132 133 136 140 137 119 127 133 137 138 151 161 155 153 137 133 129 98 50 2 307 261 255 243 263 258 270 291 171 130 58 113 157 169 180 159 163 172 180 185 182
135 139 138 137 141 132 132 134 139 155 153 154 163 156 134 119 149 121 143 52 59 40 303 308 278 351 315 278 271 272 200 174 57 123 103 189 182 142 151 177 184 195 200
133 124 139 144 147 138 137 148 140 154 147 138 162 149 131 18 259 236 176 133 32 31 351 308 287 79 10 312 299 286 320 235 154 104 287 171 171 145 156 169 189 194 201
141 145 141 142 136 161 140 131 168 181 170 166 204 242 211 200 236 223 201 110 58 82 25 4 328 301 239 328 257 29 10 63 207 188 177 189 159 156 157 173 187 194 199
150 149 141 141 157 164 138 167 190 192 190 200 226 271 311 210 235 274 262 51 14 67 306 318 0 72 54 18 29 33 340 348 166 166 172 162 139 155 175 181 186 193 198
153 139 159 141 174 136 135 190 203 162 160 195 208 283 340 288 10 351 30 67 287 83 44 275 350 2 85 317 272 38 14 351 356 152 144 156 135 165 183 186 190 198 207
157 138 144 147 173 132 168 188 88 130 197 170 179 161 208 298 36 346 349 9 143 259 335 30 9 17 19 1 21 6 7 348 350 10 333 201 201 187 190 196 191 196 202
157 150 138 150 167 172 144 148 125 163 126 196 202 118 4 19 1 336 319 13 43 47 352 46 42 20 351 352 5 1 356 353 339 356 334 270 302 221 219 221 220 217 207
159 162 149 160 168 177 157 155 188 201 187 222 142 102 346 353 353 330 335 11 25 16 350 334 3 352 357 11 358 348 344 343 344 333 313 17 205 215 269 246 251 234 225
165 166 159 176 170 176 173 181 209 204 191 218 197 196 188 280 320 331 336 27 7 0 335 346 359 351 354 10 356 335 325 333 340 331 305 357 9 308 260 239 255 258 253
165 163 161 176 163 175 179 190 214 205 252 232 217 198 175 212 295 337 320 357 3 344 342 359 349 346 353 345 346 336 328 328 349 296 278 40 10 4 341 130 290 283 282
162 166 171 178 169 174 182 192 206 198 233 268 233 230 162 247 270 319 322 293 14 321 351 344 335 331 334 330 333 336 331 312 271 263 268 50 21 259 23 345 355 309 354
168 169 180 180 170 176 179 198 205 203 203 229 225 207 87 225 5 352 323 308 330 52 339 317 322 321 334 348 337 335 324 336 265 335 162 4 12 299 311 344 23 24 70
172 173 181 185 177 181 193 204 207 220 206 202 210 190 197 233 255 286 272 319 354 3 294 308 281 291 311 335 333 325 329 327 9 58 55 54 30 45 133 82 62 56 87
176 177 183 187 187 189 196 207 230 265 276 189 210 181 191 208 240 267 284 285 306 306 282 318 280 284 316 324 339 321 329 324 331 355 41 36 20 33 52 73 87 70 74
178 181 187 188 191 194 200 208 212 210 236 235 200 231 229 215 218 250 268 269 267 280 292 312 314 316 327 321 331 332 324 300 309 323 345 34 12 40 67 100 83 84 104
184 183 187 186 194 197 206 214 208 215 237 246 232 246 190 197 228 253 255 261 276 283 291 307 317 318 320 327 322 322 324 323 284 228 321 356 3 42 109 105 80 69 87
190 184 185 185 194 199 207 213 224 217 232 251 247 257 219 237 245 252 237 249 263 279 290 312 316 319 323 324 328 337 353 343 15 355 335 334 348 48 112 95 86 71 61